ELECTRON KICK STAGE R/B, 65300

Orbit data source: Space-Track

ELECTRON KICK STAGE R/B, 65300 is space debris in SSO originally from a launch on Sat, 23 Aug 2025 UTC launched from the Rocket Lab Launch Complex (RLLC). Debris objects in space refer to the collection of defunct objects orbiting the Earth. Examples of debris include non-operational satellites, rocket bodies, and fragments generated from explosions, collisions, or faulty payload assembly.

Loading next visibility...
Identifier
65300, 2025-185D
Orbit
SSO
Country
Flag of USUS
Related business
Manufacturer
Rocket Lab
Mission
Spacecraft
Bus & Motor
KICK STAGE, CURIE
Mass
~50 kg wet, ~50 kg dry
Launch date (UTC)
2025-08-23 (10 months ago)
Launch vehicle
Unknown
Launch site
Rocket Lab Launch Complex (RLLC)
Object type
Payload
Rocket body
Debris
Shape & HBR
Trunc Cone, 1.1 m
Radar Cross Section
0.760 m², Medium (>0.1 m² and < 1m²)

Expand to show TLE details & history
Last TLE update: 8 hours ago

TLE from 8 hours ago
0 ELECTRON KICK STAGE R/B
1 65300U 25185D   26162.78434566  .00001103  00000-0  18658-3 0  9991
2 65300  97.9472 243.7123 0012539  90.4228 269.8416 14.71215000 42903
Epoch: 2026-06-11T18:49Z
TLE epoch observation values (Epoch: 2026-06-11T18:49:27.465Z)
Latitude
0.00002°
Longitude
61.22469°
Altitude
660.236 km
Speed
7.527 km/s
True Right ascension
16h 14m 50s
True Declination
0° 00' 00"
Sunlit
Object was in full shadow at epoch
Visualization orbit readout
Latitude
Unknown
Longitude
Unknown
Altitude
Unknown
Speed
Unknown
Apparent Right ascension
Unknown
Apparent Declination
Unknown
Sunlit
N/A
Visualization observer readout
Local Sidereal Time
12:55:31
Azimuth
Unknown
Elevation
Unknown
Doppler factor
Unknown
Orbital elements
Apogee altitude
663.065 km
Perigee altitude
645.429 km
Semi-major axis
7,032.384 km
Eccentricity
0.00125
Inclination
97.9472°
RAAN
243.7123°
Arg. of periapsis
90.4228°
True anomaly
269.69791°
Mean anomaly
269.8416°
Eccentric anomaly
269.76976°
Mean motion
3.68035 °/min
Orbital period
97.82 mins
BSTAR
0.00018658
Loading maneuver chart data...
Computing Atmospheric mass density...
Loading historical data...
Loading historical data...
Loading historical data...
Loading historical data...
Loading historical data...
Loading historical data...
Loading historical data...
Other satellites on launch #185 in the year 2025 (2025-08-23 UTC)

Documentation

Showing up to 5 results
|